Mesquite, TX

7:26 AM CDT on October 17, 2017 (GMT -0500)
Mesquite Metro

Weather History for KHQZ - March, 2014

Change the Weather History Date:

Sunday, March 16, 2014

  Actual Average (KDFW) Record (KDFW)
Temperature  
Mean Temperature 48 °F -  
Max Temperature 55 °F 64 °F 88 °F (1908)
Min Temperature 41 °F 45 °F 29 °F (1947)
Degree Days  
Heating Degree Days 17    
Moisture  
Dew Point 40 °F    
Average Humidity 77    
Maximum Humidity 95    
Minimum Humidity 66    
Precipitation  
Precipitation 0.00 in - - ()
Sea Level Pressure  
Sea Level Pressure 29.93 in    
Wind  
Wind Speed 12 mph (NW)    
Max Wind Speed 25 mph    
Max Gust Speed 33 mph    
Visibility 10 miles    
Events      
Averages and records for this station are not official NWS values.
T = Trace of Precipitation, MM = Missing Value Source: NWS Daily Summary

Daily Weather History Graph

Daily Weather History Graph

Search for Another Location

Airport or City:

Trip Planner

Search our weather history database for the weather conditions in past years. The results will help you decide how hot, cold, wet, or windy it might be!

Date:

Astronomy

Mar. 16, 2014 Rise Set
Actual Time 7:35 AM CDT 7:34 PM CDT
Civil Twilight 7:10 AM CDT 7:59 PM CDT
Nautical Twilight 6:41 AM CDT 8:28 PM CDT
Astronomical Twilight 6:13 AM CDT 8:56 PM CDT
Moon 7:50 PM CDT (3/16) 7:20 AM CDT (3/16)
Length of Visible Light 12h 48m
Length of Day
11h 59m
Full, 100% of the Moon is Illuminated
Mar 16
Full
Mar 16
Full
Mar 23
Last Quarter
Mar 30
New
Apr 7
First Quarter

Hourly Weather History & Observations

Time (CDT) Temp. Windchill Dew Point Humidity Pressure Visibility Wind Dir Wind Speed Gust Speed Precip Events Conditions
12:15 AM 53.6 °F - 52.0 °F 94% 29.76 in 10.0 mi Calm Calm - N/A   Clear
12:35 AM 52.5 °F - 50.9 °F 94% 29.76 in 7.0 mi WNW 3.5 mph - N/A   Scattered Clouds
12:55 AM 52.7 °F - 51.3 °F 95% 29.76 in 5.0 mi West 3.5 mph - N/A   Scattered Clouds
1:15 AM 52.2 °F - 50.7 °F 95% 29.76 in 5.0 mi West 3.5 mph - N/A   Scattered Clouds
1:35 AM 51.8 °F - 50.4 °F 95% 29.77 in 5.0 mi West 5.8 mph - N/A   Clear
1:55 AM 52.2 °F - 50.7 °F 95% 29.76 in 5.0 mi WNW 8.1 mph - N/A   Clear
2:15 AM 52.9 °F - 51.4 °F 95% 29.76 in 10.0 mi NW 10.4 mph - N/A   Clear
2:35 AM 53.2 °F - 51.8 °F 95% 29.77 in 10.0 mi NW 9.2 mph - N/A   Clear
2:55 AM 53.6 °F - 51.4 °F 92% 29.78 in 10.0 mi NW 8.1 mph - N/A   Clear
3:15 AM 53.1 °F - 50.9 °F 92% 29.77 in 10.0 mi NW 8.1 mph - N/A   Clear
3:35 AM 53.1 °F - 50.9 °F 92% 29.77 in 10.0 mi WNW 8.1 mph - N/A   Clear
3:55 AM 52.7 °F - 50.4 °F 92% 29.78 in 7.0 mi WNW 6.9 mph - N/A   Clear
4:15 AM 53.6 °F - 51.1 °F 91% 29.78 in 10.0 mi WNW 11.5 mph - N/A   Scattered Clouds
4:35 AM 54.5 °F - 51.4 °F 89% 29.78 in 10.0 mi NW 9.2 mph - N/A   Overcast
4:55 AM 54.9 °F - 51.3 °F 88% 29.78 in 10.0 mi NW 9.2 mph - N/A   Overcast
5:15 AM 54.5 °F - 51.1 °F 88% 29.79 in 10.0 mi NW 9.2 mph - N/A   Mostly Cloudy
5:35 AM 54.5 °F - 51.1 °F 88% 29.80 in 10.0 mi NW 8.1 mph - N/A   Mostly Cloudy
5:55 AM 54.0 °F - 50.7 °F 89% 29.80 in 10.0 mi NW 6.9 mph - N/A   Scattered Clouds
6:15 AM 53.8 °F - 50.9 °F 90% 29.81 in 10.0 mi NW 9.2 mph - N/A   Scattered Clouds
6:35 AM 54.9 °F - 51.3 °F 88% 29.81 in 10.0 mi NW 10.4 mph 17.3 mph N/A   Mostly Cloudy
6:55 AM 55.4 °F - 51.8 °F 88% 29.82 in - NW 9.2 mph - N/A   Overcast
7:15 AM 55.0 °F - 49.5 °F 81% 29.83 in 10.0 mi NW 12.7 mph 19.6 mph N/A   Overcast
7:35 AM 54.9 °F - 48.7 °F 80% 29.82 in 10.0 mi NW 15.0 mph 24.2 mph N/A   Overcast
7:55 AM 51.8 °F - 44.6 °F 76% 29.86 in - WNW 21.9 mph 31.1 mph N/A   Overcast
8:15 AM 48.9 °F - 41.5 °F 76% 29.86 in 10.0 mi NW 19.6 mph 33.4 mph N/A   Overcast
8:35 AM 48.4 °F - 41.0 °F 76% 29.87 in 10.0 mi NNW 17.3 mph 31.1 mph N/A   Overcast
8:55 AM 48.2 °F - 41.0 °F 76% 29.87 in - NW 20.7 mph 28.8 mph N/A   Mostly Cloudy
9:15 AM 47.3 °F - 39.4 °F 74% 29.89 in 10.0 mi NNW 25.3 mph 33.4 mph N/A   Mostly Cloudy
9:35 AM 47.8 °F - 39.7 °F 74% 29.89 in 10.0 mi NNW 15.0 mph - N/A   Overcast
9:55 AM 48.4 °F - 39.7 °F 72% 29.91 in 10.0 mi North 19.6 mph 26.5 mph N/A   Overcast
10:15 AM 48.2 °F - 38.8 °F 70% 29.94 in 10.0 mi NW 24.2 mph - N/A   Overcast
10:35 AM 49.3 °F - 39.0 °F 68% 29.94 in 10.0 mi NNW 19.6 mph 28.8 mph N/A   Overcast
10:55 AM 48.0 °F - 37.8 °F 68% 29.96 in 10.0 mi NW 24.2 mph 32.2 mph N/A   Overcast
11:15 AM 47.5 °F - 37.4 °F 68% 29.98 in 10.0 mi NNW 20.7 mph 27.6 mph N/A   Overcast
11:35 AM 46.8 °F - 37.0 °F 69% 30.00 in 10.0 mi NNW 16.1 mph 26.5 mph N/A   Overcast
11:55 AM 46.4 °F 39.0 °F 35.6 °F 66% 30.01 in - WNW 19.6 mph 26.5 mph N/A   Overcast
12:15 PM 45.9 °F 38.0 °F 36.1 °F 69% 30.01 in 10.0 mi NW 20.7 mph 28.8 mph N/A   Overcast
12:35 PM 45.7 °F 38.6 °F 36.3 °F 70% 30.02 in 10.0 mi NNW 17.3 mph 25.3 mph N/A   Overcast
12:55 PM 46.4 °F 39.2 °F 35.6 °F 66% 30.01 in - WNW 18.4 mph 26.5 mph N/A   Overcast
1:15 PM 45.9 °F 38.8 °F 36.1 °F 69% 30.01 in 10.0 mi NW 17.3 mph 24.2 mph N/A   Overcast
1:55 PM 44.8 °F 37.7 °F 35.4 °F 70% 30.02 in 10.0 mi NW 16.1 mph 21.9 mph N/A   Overcast
2:15 PM 44.4 °F 36.9 °F 35.2 °F 70% 30.03 in 10.0 mi NNW 17.3 mph 20.7 mph N/A   Overcast
2:35 PM 43.9 °F 35.9 °F 34.2 °F 69% 30.03 in 10.0 mi NW 18.4 mph 25.3 mph N/A   Overcast
2:55 PM 44.6 °F 37.2 °F 33.8 °F 66% 30.01 in - NW 17.3 mph 24.2 mph N/A   Overcast
3:15 PM 43.9 °F 35.7 °F 34.3 °F 69% 30.00 in 10.0 mi NNW 19.6 mph 26.5 mph N/A   Overcast
3:35 PM 43.7 °F 35.4 °F 34.2 °F 69% 29.99 in 10.0 mi NW 19.6 mph 26.5 mph N/A   Overcast
3:55 PM 43.3 °F 34.0 °F 34.3 °F 71% 29.99 in 10.0 mi NNW 24.2 mph 28.8 mph N/A   Overcast
4:15 PM 43.0 °F 35.7 °F 34.3 °F 72% 29.99 in 10.0 mi NNW 15.0 mph 29.9 mph N/A   Overcast
4:35 PM 43.2 °F 34.7 °F 34.0 °F 70% 29.99 in 10.0 mi NNW 19.6 mph 29.9 mph N/A   Overcast
4:55 PM 42.3 °F 32.6 °F 33.3 °F 70% 29.99 in 10.0 mi NNW 24.2 mph - N/A   Overcast
5:15 PM 42.4 °F 33.3 °F 32.7 °F 68% 29.99 in 10.0 mi NNW 21.9 mph 28.8 mph N/A   Overcast
5:35 PM 42.1 °F 32.1 °F 32.5 °F 69% 29.99 in 10.0 mi NNW 25.3 mph 32.2 mph N/A   Overcast
5:55 PM 42.8 °F 34.5 °F 33.8 °F 70% 29.99 in - NW 18.4 mph 28.8 mph N/A   Overcast
6:15 PM 41.5 °F 32.4 °F 32.4 °F 70% 30.00 in 10.0 mi NNW 20.7 mph 27.6 mph N/A   Overcast
6:35 PM 41.9 °F 32.1 °F 32.0 °F 68% 30.01 in 10.0 mi NNW 24.2 mph 29.9 mph N/A   Overcast
6:55 PM 41.0 °F 31.6 °F 33.8 °F 76% 30.01 in - NW 20.7 mph 25.3 mph N/A   Overcast
7:15 PM 41.0 °F 31.9 °F 32.0 °F 70% 30.02 in 10.0 mi NNW 19.6 mph 27.6 mph N/A   Overcast
7:35 PM 41.0 °F 32.8 °F 32.0 °F 70% 30.03 in 10.0 mi NW 16.1 mph 26.5 mph N/A   Overcast
7:55 PM 41.0 °F 31.4 °F 33.8 °F 76% 30.04 in - NNW 21.9 mph 26.5 mph N/A   Overcast
8:15 PM 41.0 °F 31.9 °F 32.0 °F 70% 30.04 in 10.0 mi NNW 19.6 mph 25.3 mph N/A   Overcast
8:35 PM 41.0 °F 32.2 °F 32.0 °F 70% 30.05 in 10.0 mi NNW 18.4 mph 24.2 mph N/A   Overcast
8:55 PM 41.0 °F 32.8 °F 31.8 °F 70% 30.06 in 10.0 mi NNW 16.1 mph 25.3 mph N/A   Overcast
9:15 PM 41.0 °F 31.9 °F 31.8 °F 70% 30.06 in 10.0 mi NNW 19.6 mph 24.2 mph N/A   Overcast
9:35 PM 41.0 °F 32.5 °F 32.0 °F 70% 30.06 in 10.0 mi NNW 17.3 mph 28.8 mph N/A   Overcast
9:55 PM 41.2 °F 33.7 °F 32.0 °F 70% 30.07 in 10.0 mi North 13.8 mph 24.2 mph N/A   Overcast
10:15 PM 41.2 °F 33.7 °F 32.0 °F 70% 30.07 in 10.0 mi North 13.8 mph 19.6 mph N/A   Overcast
10:35 PM 41.4 °F 32.4 °F 32.0 °F 69% 30.07 in 10.0 mi NNW 19.6 mph - N/A   Overcast
10:55 PM 41.2 °F 33.7 °F 32.0 °F 70% 30.07 in 10.0 mi NNW 13.8 mph 20.7 mph N/A   Overcast
11:15 PM 41.5 °F 35.0 °F 32.0 °F 69% 30.07 in 10.0 mi NNW 11.5 mph - N/A   Overcast
11:35 PM 41.5 °F 35.9 °F 32.2 °F 69% 30.07 in 10.0 mi North 9.2 mph - N/A   Overcast
11:55 PM 41.7 °F 35.2 °F 32.2 °F 69% 30.06 in 10.0 mi NNW 11.5 mph 17.3 mph N/A   Overcast